Location: Winnipeg
(49.8830°N, 97.1670°W)
Time: 04:17:47
(UTC-06:00)

ISS - Pass Details

Date: 30 January 2021
Orbit: 417 x 422 km, 51.6° (Epoch: 07 March)

Event Time Altitude Azimuth Distance (km) Brightness Sun altitude
Rises 17:59:22 0° 277° (W) 2,373 1.4 -6.6°
Reaches altitude 10° 18:01:29 10° 280° (W) 1,509 0.2 -6.9°
Maximum altitude 18:04:51 62° 2° (N) 479 -3.6 -7.4°
Enters shadow 18:08:12 10° 85° (E) 1,504 -1.6 -7.9°
